CW0454 Weather Reports


Display with metric or nautical units.
time (UTC)temp
F
wind
direction
speed
MPH
gust
MPH
rain 1hr
in
rain 24hr
in
rain mn
in
humidity
%
barometer
mb
20260508041359 50 215 1.0 7.0 0.00 0.05 0.00 83 1010.4
20260508040359 51 186 1.0 4.0 0.00 0.10 0.05 83 1010.3
20260508035420 51 155 0.0 4.0 0.00 0.05 0.05 82 1010.2
20260508034359 51 166 0.0 4.0 0.00 0.05 0.05 82 1010.2
20260508033359 51 237 1.0 5.0 0.00 0.05 0.05 81 1010.2
20260508032358 51 222 1.0 5.0 0.00 0.05 0.05 81 1010.2
20260508031359 52 143 0.0 3.0 0.00 0.05 0.05 80 1010.3
20260508030421 52 86 0.0 5.0 0.00 0.05 0.05 80 1010.2
20260508025420 52 228 1.0 4.0 0.00 0.05 0.05 79 1010.1
20260508024359 52 183 1.0 4.0 0.00 0.05 0.05 78 1010.1
20260508023400 52 113 0.0 3.0 0.00 0.05 0.05 78 1010.1
20260508022400 53 123 0.0 6.0 0.00 0.05 0.05 77 1010.1
20260508021359 53 105 0.0 3.0 0.00 0.05 0.05 77 1010.2
20260508020359 53 132 2.0 3.0 0.00 0.05 0.05 76 1010.0
20260508015359 53 178 1.0 5.0 0.00 0.05 0.05 75 1010.0
20260508014421 53 200 1.0 6.0 0.00 0.05 0.05 76 1010.0
20260508013359 53 186 2.0 4.0 0.00 0.05 0.05 75 1009.9
20260508012359 53 149 0.0 3.0 0.00 0.05 0.05 74 1009.8
20260508011359 53 212 1.0 4.0 0.00 0.05 0.05 74 1009.6
20260508010400 53 180 0.0 3.0 0.00 0.05 0.05 73 1009.4
20260508005420 53 126 1.0 3.0 0.00 0.05 0.05 72 1009.3
20260508004421 54 124 0.0 5.0 0.00 0.05 0.05 71 1009.1
20260508003401 54 122 1.0 4.0 0.00 0.05 0.05 69 1009.0
20260508002359 55 121 0.0 2.0 0.00 0.05 0.05 68 1008.9
20260508001359 56 121 0.0 3.0 0.00 0.05 0.05 67 1008.8
20260508000400 56 120 1.0 3.0 0.00 0.05 0.05 66 1008.8
20260507235359 57 109 1.0 3.0 0.00 0.05 0.05 64 1008.4
20260507234359 58 109 1.0 7.0 0.00 0.05 0.05 63 1008.4
20260507233400 58 126 1.0 5.0 0.00 0.05 0.05 62 1008.3
20260507232401 58 129 2.0 7.0 0.00 0.05 0.05 61 1008.1
20260507231359 59 101 2.0 9.0 0.00 0.05 0.05 61 1008.1
20260507230400 60 141 1.0 6.0 0.00 0.05 0.05 61 1008.1
20260507225359 60 110 2.0 6.0 0.00 0.05 0.05 61 1007.9
20260507224400 61 105 3.0 8.0 0.00 0.05 0.05 60 1007.8
20260507223400 61 127 3.0 9.0 0.00 0.05 0.05 58 1007.7
20260507222400 62 63 1.0 8.0 0.00 0.05 0.05 58 1007.8
20260507221400 62 117 3.0 8.0 0.00 0.05 0.05 59 1007.7
20260507220359 62 93 1.0 9.0 0.00 0.05 0.05 58 1007.7
20260507215400 63 127 5.0 10.0 0.00 0.05 0.05 55 1007.8
20260507214400 64 115 3.0 8.0 0.00 0.05 0.05 56 1007.9
20260507213401 64 122 4.0 10.0 0.00 0.05 0.05 56 1007.9
20260507212400 64 98 2.0 9.0 0.00 0.05 0.05 55 1007.9
20260507211400 64 110 4.0 9.0 0.00 0.05 0.05 55 1008.1
20260507210400 64 140 3.0 9.0 0.00 0.05 0.05 54 1008.0
20260507205400 64 126 2.0 10.0 0.00 0.05 0.05 55 1008.0
20260507204401 64 123 4.0 8.0 0.00 0.05 0.05 55 1008.2
20260507203400 64 123 3.0 10.0 0.00 0.05 0.05 55 1007.9
20260507202401 64 101 3.0 10.0 0.00 0.05 0.05 52 1008.0
20260507201400 65 117 4.0 9.0 0.00 0.05 0.05 52 1007.9
20260507200400 65 95 4.0 12.0 0.00 0.05 0.05 54 1007.9
20260507195400 64 88 3.0 8.0 0.00 0.05 0.05 56 1008.1
20260507194400 64 63 3.0 8.0 0.00 0.05 0.05 56 1008.1
20260507193401 64 89 2.0 6.0 0.00 0.05 0.05 57 1008.3
20260507192400 63 106 2.0 6.0 0.00 0.05 0.05 54 1008.4
20260507191400 65 83 3.0 5.0 0.00 0.05 0.05 56 1008.3
20260507190421 64 127 1.0 7.0 0.00 0.05 0.05 55 1008.6
20260507185400 64 125 3.0 8.0 0.00 0.05 0.05 54 1008.8
20260507184422 63 86 2.0 7.0 0.00 0.05 0.05 55 1009.0
20260507183400 62 108 2.0 7.0 0.00 0.05 0.05 59 1009.1
20260507182401 61 60 4.0 11.0 0.00 0.05 0.05 58 1009.2
20260507181421 61 116 1.0 4.0 0.00 0.05 0.05 59 1009.2
20260507180400 61 67 1.0 6.0 0.00 0.05 0.05 57 1009.5
20260507175401 61 85 3.0 5.0 0.00 0.05 0.05 56 1009.7
20260507174400 61 124 2.0 6.0 0.00 0.05 0.05 57 1009.9
20260507173401 61 48 2.0 6.0 0.00 0.05 0.05 56 1010.0
20260507172400 61 71 2.0 7.0 0.00 0.05 0.05 54 1009.9
20260507171401 60 46 1.0 5.0 0.00 0.05 0.05 60 1010.0
20260507170401 58 42 2.0 3.0 0.00 0.05 0.05 59 1010.3
20260507165401 58 42 1.0 4.0 0.00 0.05 0.05 59 1010.5
20260507164422 58 38 0.0 4.0 0.00 0.05 0.05 59 1010.7
20260507163400 58 56 1.0 5.0 0.00 0.05 0.05 58 1010.7
20260507162401 58 12 2.0 4.0 0.00 0.05 0.05 58 1010.8
20260507161401 58 13 1.0 3.0 0.00 0.05 0.05 56 1010.8
20260507160422 58 17 2.0 5.0 0.00 0.05 0.05 58 1011.1
20260507155422 58 29 2.0 6.0 0.00 0.05 0.05 58 1011.4
20260507154400 57 348 2.0 6.0 0.00 0.05 0.05 60 1011.1
20260507153401 57 11 2.0 7.0 0.00 0.06 0.05 58 1011.1
20260507152422 57 350 2.0 5.0 0.00 0.06 0.05 60 1011.2
20260507151401 57 5 3.0 7.0 0.00 0.06 0.05 59 1011.3
20260507150401 56 31 1.0 5.0 0.00 0.06 0.05 60 1011.5
20260507145401 56 334 1.0 4.0 0.00 0.08 0.05 61 1011.6
20260507144401 55 37 1.0 8.0 0.00 0.12 0.05 60 1011.9
20260507143402 55 24 1.0 6.0 0.00 0.13 0.05 60 1011.6
20260507142401 55 351 3.0 7.0 0.00 0.14 0.05 59 1011.8
20260507141422 55 94 2.0 4.0 0.00 0.15 0.05 59 1011.9
20260507140401 55 285 2.0 8.0 0.00 0.16 0.05 58 1012.1
20260507135402 56 226 2.0 9.0 0.00 0.17 0.05 58 1011.9
20260507134401 56 192 2.0 8.0 0.00 0.17 0.05 58 1012.0
20260507133401 56 340 2.0 6.0 0.00 0.17 0.05 60 1011.8
20260507132401 55 236 2.0 9.0 0.00 0.17 0.05 59 1012.1
20260507131401 55 254 3.0 11.0 0.00 0.17 0.05 60 1012.0
20260507130403 55 264 3.0 11.0 0.00 0.17 0.05 61 1012.1
20260507125401 55 282 3.0 11.0 0.00 0.17 0.05 63 1012.1
20260507124402 55 258 3.0 8.0 0.00 0.17 0.05 62 1012.2
20260507123401 55 314 2.0 8.0 0.00 0.17 0.05 63 1011.9
20260507122402 55 265 2.0 7.0 0.00 0.17 0.05 65 1012.0
20260507121403 55 263 3.0 10.0 0.00 0.17 0.05 65 1011.8
20260507120422 55 261 4.0 11.0 0.00 0.17 0.05 66 1011.7
20260507115402 54 267 3.0 8.0 0.00 0.17 0.05 68 1011.6
20260507114402 54 294 2.0 7.0 0.00 0.17 0.05 70 1011.5
20260507113402 54 260 1.0 6.0 0.00 0.17 0.05 75 1011.6
20260507112402 54 254 1.0 7.0 0.00 0.17 0.05 78 1011.6
20260507111423 54 336 2.0 6.0 0.00 0.17 0.05 77 1011.5
20260507110402 54 263 1.0 6.0 0.00 0.17 0.05 78 1011.4
20260507105402 53 215 2.0 4.0 0.00 0.17 0.05 80 1011.3
20260507104402 54 275 0.0 4.0 0.00 0.17 0.05 85 1011.3
20260507103402 53 290 1.0 4.0 0.00 0.17 0.05 85 1011.0
20260507102424 54 254 0.0 2.0 0.00 0.17 0.05 88 1011.0
20260507101402 54 254 0.0 1.0 0.00 0.17 0.05 89 1010.8
20260507100402 54 254 1.0 5.0 0.00 0.17 0.05 88 1010.8
20260507095402 54 264 1.0 3.0 0.01 0.17 0.05 89 1010.8
20260507094402 54 260 0.0 2.0 0.01 0.17 0.05 90 1010.7
20260507093403 54 267 0.0 2.0 0.01 0.17 0.05 90 1010.7
20260507092402 54 267 0.0 2.0 0.01 0.17 0.05 90 1011.3
20260507091403 54 267 0.0 1.0 0.01 0.17 0.05 89 1010.9
20260507090402 54 268 0.0 2.0 0.00 0.16 0.04 88 1010.6
20260507085402 54 268 0.0 3.0 0.00 0.16 0.04 88 1010.4
20260507084403 54 240 1.0 3.0 0.00 0.16 0.04 88 1010.6
20260507083402 54 300 0.0 4.0 0.00 0.16 0.04 87 1010.3
20260507082445 54 50 0.0 4.0 0.00 0.16 0.04 86 1010.1
20260507081403 55 307 1.0 4.0 0.00 0.16 0.04 87 1010.1
20260507080403 55 125 1.0 3.0 0.00 0.16 0.04 86 1010.1
20260507075403 55 32 2.0 8.0 0.00 0.16 0.04 85 1009.8
20260507074402 56 190 2.0 8.0 0.00 0.16 0.04 86 1009.6
20260507073402 56 261 2.0 10.0 0.00 0.16 0.04 88 1009.7
20260507072402 56 260 3.0 8.0 0.00 0.16 0.04 88 1009.5
20260507071403 56 273 3.0 11.0 0.00 0.16 0.04 88 1009.3
20260507070403 56 251 2.0 8.0 0.00 0.16 0.04 88 1009.3
20260507065402 56 253 2.0 8.0 0.01 0.16 0.04 89 1009.6
20260507064403 56 282 1.0 6.0 0.01 0.16 0.04 89 1009.3
20260507063424 56 270 2.0 9.0 0.01 0.16 0.04 89 1009.2
20260507062403 56 267 2.0 8.0 0.01 0.16 0.04 89 1009.2
20260507061359 56 255 3.0 9.0 0.00 0.15 0.03 89 1009.6
20260507060358 56 244 1.0 5.0 0.00 0.15 0.03 88 1009.5
20260507055359 57 264 2.0 8.0 0.02 0.14 0.02 87 1009.6
20260507054359 59 278 3.0 9.0 0.02 0.14 0.02 87 1009.6
20260507053359 60 337 1.0 6.0 0.02 0.14 0.02 86 1009.6
20260507052359 61 314 2.0 7.0 0.00 0.12 0.00 82 1009.7
20260507051358 62 298 3.0 9.0 0.00 0.12 0.00 80 1009.8
20260507050359 62 283 2.0 10.0 0.00 0.12 0.00 78 1009.7
20260507045358 63 318 2.0 9.0 0.00 0.12 0.00 77 1009.2
20260507044359 63 260 2.0 12.0 0.00 0.12 0.00 78 1009.3
20260507043358 64 281 4.0 9.0 0.00 0.12 0.00 80 1009.2
20260507042400 64 262 1.0 7.0 0.00 0.12 0.00 81 1009.1